Location: Brachstadt
(48.6975°N, 10.6755°E)
Time: 13:57:33
(UTC+00:00)

Envisat - Pass Details

Date: 07 December 2022
Orbit: 763 x 765 km, 98.2° (Epoch: 06 February)

Event Time Altitude Azimuth Distance (km) Brightness Sun altitude
Rises 03:29:40 0° 15° (NNE) 3,246 6.4 -32.9°
Reaches altitude 10° 03:32:00 10° 17° (NNE) 2,315 5.7 -32.5°
Enters shadow 03:33:31 20° 20° (NNE) 1,725 5.0 -32.3°
